sat.trackr.live / text

‹ back to catalog

STARLINK-5190

NORAD 54092 · 2022-136AT

PAYLOAD ACTIVE UNKNOWN

§ Identity

Operator
Country
US
Launch date
2022-10-20
Launch site
AFETR
Launch vehicle
Mass (kg)
RCS (m²)

Purposes: comms

External: N2YO · Heavens-Above · Gunter

§ Orbital elements

Epoch: 2026-08-22T02:22:00.831936Z

Period
87.87 min
Inclination
53.1524°
Eccentricity
0.0010214
Mean motion
16.38816961 rev/d
Perigee alt
162.3 km
Apogee alt
175.6 km
Semi-major
6,547.1 km
B*
3.9658e-4
RAAN
61.6871°
Arg perigee
281.3671°
Mean anomaly
78.6228°
Rev number
21,544

§ Raw data

STARLINK-51901 54092U 22136AT  26234.09862074  .04827599  12334-4  39658-3 0  99922 54092  53.1524  61.6871 0010214 281.3671  78.6228 16.38816961215445

JSON: /api/v1/satellites/54092 · /tle

For live sub-satellite position, see the globe view (requires WebGL).

§ Visibility from observer

Set your observer location to see the next 7 days of passes ≥ 10°. The values pass through the URL so the page stays shareable.

No JS? Fill the form by hand. The geolocation button needs JavaScript.